Time,TemperatureF,DewpointF,PressureIn,WindDirection,WindDirectionDegrees,WindSpeedMPH,WindSpeedGustMPH,Humidity,HourlyPrecipIn,Conditions,Clouds,dailyrainin,SoftwareType,DateUTC
2013-06-06 00:03:00,61.0,60.0,30.05,South,170,0.0,4.0,96,0.00,,,0.34,,2013-06-06 04:03:00,
2013-06-06 01:23:00,62.0,61.0,30.02,South,171,0.0,1.0,96,0.12,,,0.46,,2013-06-06 05:23:00,
2013-06-06 01:32:00,62.0,61.0,30.02,South,171,0.0,1.0,96,0.12,,,0.46,,2013-06-06 05:32:00,
2013-06-06 01:42:00,62.0,61.0,30.02,South,171,0.0,1.0,96,0.12,,,0.46,,2013-06-06 05:42:00,
2013-06-06 01:52:00,62.0,61.0,30.01,South,170,0.0,1.0,96,0.02,,,0.46,,2013-06-06 05:52:00,
2013-06-06 02:02:00,62.0,61.0,30.00,South,170,0.0,1.0,96,0.00,,,0.46,,2013-06-06 06:02:00,
2013-06-06 02:12:00,62.0,61.0,30.00,South,170,0.0,1.0,96,0.00,,,0.46,,2013-06-06 06:12:00,
2013-06-06 02:22:00,61.0,60.0,29.99,South,170,0.0,1.0,96,0.00,,,0.46,,2013-06-06 06:22:00,
2013-06-06 02:33:00,61.0,60.0,29.99,South,170,0.0,1.0,96,0.00,,,0.46,,2013-06-06 06:33:00,
2013-06-06 02:42:00,61.0,60.0,29.99,South,170,0.0,1.0,96,0.00,,,0.46,,2013-06-06 06:42:00,
2013-06-06 02:52:00,61.0,60.0,29.99,South,170,0.0,1.0,96,0.00,,,0.46,,2013-06-06 06:52:00,
2013-06-06 03:02:00,61.0,60.0,29.98,South,170,1.0,2.0,96,0.00,,,0.46,,2013-06-06 07:02:00,
2013-06-06 03:12:00,61.0,60.0,29.98,South,170,1.0,2.0,96,0.00,,,0.46,,2013-06-06 07:12:00,
2013-06-06 03:22:00,61.0,60.0,29.98,South,170,0.0,2.0,97,0.02,,,0.48,,2013-06-06 07:22:00,
2013-06-06 03:32:00,61.0,60.0,29.97,South,171,0.0,4.0,97,0.02,,,0.48,,2013-06-06 07:32:00,
2013-06-06 03:42:00,61.0,60.0,29.97,South,171,0.0,4.0,97,0.02,,,0.48,,2013-06-06 07:42:00,
2013-06-06 03:52:00,61.0,60.0,29.97,South,170,0.0,2.0,97,0.02,,,0.48,,2013-06-06 07:52:00,
2013-06-06 04:02:00,61.0,60.0,29.97,South,170,0.0,2.0,97,0.03,,,0.49,,2013-06-06 08:02:00,
2013-06-06 04:12:00,61.0,60.0,29.97,South,170,0.0,2.0,97,0.03,,,0.49,,2013-06-06 08:12:00,
2013-06-06 04:22:00,61.0,60.0,29.97,South,171,0.0,2.0,97,0.02,,,0.50,,2013-06-06 08:22:00,
2013-06-06 04:32:00,61.0,60.0,29.96,South,170,0.0,1.0,97,0.02,,,0.50,,2013-06-06 08:32:00,
2013-06-06 04:42:00,61.0,60.0,29.96,South,170,0.0,1.0,97,0.02,,,0.50,,2013-06-06 08:42:00,
2013-06-06 04:52:00,61.0,60.0,29.96,South,170,0.0,1.0,97,0.02,,,0.50,,2013-06-06 08:52:00,
2013-06-06 05:02:00,61.0,60.0,29.96,South,170,0.0,1.0,97,0.02,,,0.50,,2013-06-06 09:02:00,
2013-06-06 05:12:00,61.0,60.0,29.96,South,170,0.0,1.0,97,0.02,,,0.50,,2013-06-06 09:12:00,
2013-06-06 05:22:00,61.0,60.0,29.96,South,170,0.0,0.0,97,0.00,,,0.50,,2013-06-06 09:22:00,
2013-06-06 05:33:00,61.0,60.0,29.96,South,170,0.0,0.0,97,0.00,,,0.50,,2013-06-06 09:33:00,
2013-06-06 05:43:00,61.0,60.0,29.96,South,170,0.0,0.0,97,0.00,,,0.50,,2013-06-06 09:43:00,
2013-06-06 05:53:00,61.0,60.0,29.95,South,170,0.0,0.0,97,0.00,,,0.50,,2013-06-06 09:53:00,
2013-06-06 06:03:00,61.0,60.0,29.95,South,170,0.0,0.0,97,0.00,,,0.50,,2013-06-06 10:03:00,
2013-06-06 06:12:00,61.0,60.0,29.95,South,170,0.0,0.0,97,0.00,,,0.50,,2013-06-06 10:12:00,
2013-06-06 06:23:00,61.0,60.0,29.95,South,170,0.0,0.0,97,0.00,,,0.50,,2013-06-06 10:23:00,
2013-06-06 06:33:00,61.0,60.0,29.95,South,170,0.0,0.0,97,0.00,,,0.50,,2013-06-06 10:33:00,
2013-06-06 06:42:00,61.0,60.0,29.95,South,170,0.0,0.0,97,0.00,,,0.50,,2013-06-06 10:42:00,
2013-06-06 06:52:00,61.0,60.0,29.95,South,170,0.0,0.0,97,0.02,,,0.52,,2013-06-06 10:52:00,
2013-06-06 07:02:00,61.0,60.0,29.95,South,170,0.0,0.0,97,0.02,,,0.52,,2013-06-06 11:02:00,
2013-06-06 07:12:00,61.0,60.0,29.95,South,170,0.0,0.0,97,0.02,,,0.52,,2013-06-06 11:12:00,
2013-06-06 07:23:00,61.0,60.0,29.95,South,170,0.0,0.0,97,0.02,,,0.52,,2013-06-06 11:23:00,
2013-06-06 07:32:00,61.0,60.0,29.95,South,170,0.0,0.0,97,0.02,,,0.52,,2013-06-06 11:32:00,
2013-06-06 07:42:00,61.0,60.0,29.95,South,170,0.0,0.0,97,0.02,,,0.52,,2013-06-06 11:42:00,
2013-06-06 07:52:00,61.0,60.0,29.95,South,170,0.0,0.0,97,0.02,,,0.52,,2013-06-06 11:52:00,
2013-06-06 08:33:00,62.0,61.0,29.94,South,170,0.0,0.0,97,0.00,,,0.52,,2013-06-06 12:33:00,
2013-06-06 08:43:00,62.0,61.0,29.94,South,170,0.0,0.0,97,0.00,,,0.52,,2013-06-06 12:43:00,
2013-06-06 08:53:00,62.0,61.0,29.94,South,170,0.0,0.0,97,0.00,,,0.52,,2013-06-06 12:53:00,
2013-06-06 09:03:00,62.0,61.0,29.94,South,170,0.0,0.0,97,0.00,,,0.52,,2013-06-06 13:03:00,
2013-06-06 09:33:00,64.0,63.0,29.94,South,170,0.0,1.0,97,0.00,,,0.52,,2013-06-06 13:33:00,
2013-06-06 09:43:00,64.0,63.0,29.94,South,170,0.0,1.0,97,0.00,,,0.52,,2013-06-06 13:43:00,
2013-06-06 09:53:00,64.0,63.0,29.94,South,170,0.0,1.0,97,0.00,,,0.52,,2013-06-06 13:53:00,
2013-06-06 10:03:00,64.0,63.0,29.94,South,170,0.0,1.0,97,0.00,,,0.52,,2013-06-06 14:03:00,
2013-06-06 10:33:00,65.0,64.0,29.94,South,170,0.0,0.0,97,0.01,,,0.53,,2013-06-06 14:33:00,
2013-06-06 10:43:00,65.0,64.0,29.94,South,170,0.0,0.0,97,0.01,,,0.53,,2013-06-06 14:43:00,
2013-06-06 10:53:00,66.0,65.0,29.94,South,170,0.0,1.0,97,0.01,,,0.53,,2013-06-06 14:53:00,
2013-06-06 11:03:00,66.0,65.0,29.94,South,171,0.0,0.0,96,0.00,,,0.53,,2013-06-06 15:03:00,
2013-06-06 11:13:00,66.0,65.0,29.94,South,171,0.0,0.0,96,0.00,,,0.53,,2013-06-06 15:13:00,
2013-06-06 11:23:00,66.0,65.0,29.94,South,170,0.0,0.0,96,0.00,,,0.53,,2013-06-06 15:23:00,
2013-06-06 11:33:00,66.0,65.0,29.94,South,170,0.0,2.0,96,0.00,,,0.53,,2013-06-06 15:33:00,
2013-06-06 11:43:00,66.0,65.0,29.94,South,170,0.0,2.0,96,0.00,,,0.53,,2013-06-06 15:43:00,
2013-06-06 11:53:00,67.0,66.0,29.95,South,171,0.0,2.0,96,0.00,,,0.53,,2013-06-06 15:53:00,
2013-06-06 12:03:00,67.0,66.0,29.95,South,170,0.0,1.0,95,0.00,,,0.53,,2013-06-06 16:03:00,
2013-06-06 12:13:00,67.0,66.0,29.95,South,170,0.0,1.0,95,0.00,,,0.53,,2013-06-06 16:13:00,
2013-06-06 12:23:00,66.0,65.0,29.95,South,170,0.0,2.0,95,0.00,,,0.53,,2013-06-06 16:23:00,
2013-06-06 12:33:00,67.0,65.0,29.95,South,170,0.0,2.0,94,0.00,,,0.53,,2013-06-06 16:33:00,
2013-06-06 12:44:00,67.0,65.0,29.95,South,170,0.0,2.0,94,0.00,,,0.53,,2013-06-06 16:44:00,
2013-06-06 12:52:00,67.0,65.0,29.94,South,170,0.0,2.0,94,0.00,,,0.53,,2013-06-06 16:52:00,
2013-06-06 13:03:00,68.0,66.0,29.94,South,170,0.0,1.0,93,0.00,,,0.53,,2013-06-06 17:03:00,
2013-06-06 13:13:00,68.0,66.0,29.94,South,170,0.0,1.0,93,0.00,,,0.53,,2013-06-06 17:13:00,
2013-06-06 13:23:00,68.0,65.0,29.94,South,170,0.0,3.0,89,0.00,,,0.53,,2013-06-06 17:23:00,
2013-06-06 13:33:00,68.0,65.0,29.93,South,170,0.0,1.0,91,0.00,,,0.53,,2013-06-06 17:33:00,
2013-06-06 13:43:00,68.0,65.0,29.93,South,170,0.0,1.0,91,0.00,,,0.53,,2013-06-06 17:43:00,
2013-06-06 13:52:00,68.0,66.0,29.93,South,170,0.0,0.0,93,0.00,,,0.53,,2013-06-06 17:52:00,
2013-06-06 14:03:00,68.0,65.0,29.92,South,170,0.0,0.0,90,0.00,,,0.53,,2013-06-06 18:03:00,
2013-06-06 14:13:00,68.0,65.0,29.92,South,170,0.0,0.0,90,0.00,,,0.53,,2013-06-06 18:13:00,
2013-06-06 14:23:00,68.0,65.0,29.92,South,170,0.0,0.0,90,0.00,,,0.53,,2013-06-06 18:23:00,
2013-06-06 14:33:00,71.0,68.0,29.91,South,170,0.0,1.0,89,0.00,,,0.53,,2013-06-06 18:33:00,
2013-06-06 14:43:00,71.0,68.0,29.91,South,170,0.0,1.0,89,0.00,,,0.53,,2013-06-06 18:43:00,
2013-06-06 14:53:00,71.0,68.0,29.91,South,170,0.0,1.0,89,0.00,,,0.53,,2013-06-06 18:53:00,
2013-06-06 15:03:00,71.0,68.0,29.90,South,170,0.0,3.0,89,0.00,,,0.53,,2013-06-06 19:03:00,
2013-06-06 15:13:00,71.0,68.0,29.90,South,170,0.0,3.0,89,0.00,,,0.53,,2013-06-06 19:13:00,
2013-06-06 15:23:00,70.0,67.0,29.90,South,177,0.0,2.0,89,0.00,,,0.53,,2013-06-06 19:23:00,
2013-06-06 15:33:00,69.0,66.0,29.90,South,177,0.0,3.0,90,0.00,,,0.53,,2013-06-06 19:33:00,
2013-06-06 15:43:00,69.0,66.0,29.90,South,177,0.0,3.0,90,0.00,,,0.53,,2013-06-06 19:43:00,
2013-06-06 15:53:00,70.0,67.0,29.90,South,177,0.0,1.0,90,0.00,,,0.53,,2013-06-06 19:53:00,
2013-06-06 16:03:00,70.0,66.0,29.90,South,177,0.0,3.0,88,0.00,,,0.53,,2013-06-06 20:03:00,
2013-06-06 16:13:00,70.0,66.0,29.90,South,177,0.0,3.0,88,0.00,,,0.53,,2013-06-06 20:13:00,
2013-06-06 16:23:00,70.0,66.0,29.90,South,178,0.0,2.0,88,0.00,,,0.53,,2013-06-06 20:23:00,
2013-06-06 16:33:00,71.0,67.0,29.89,South,177,0.0,3.0,87,0.00,,,0.53,,2013-06-06 20:33:00,
2013-06-06 16:43:00,71.0,67.0,29.89,South,177,0.0,3.0,87,0.00,,,0.53,,2013-06-06 20:43:00,
2013-06-06 16:53:00,70.0,66.0,29.89,South,177,0.0,1.0,87,0.00,,,0.53,,2013-06-06 20:53:00,
2013-06-06 17:03:00,70.0,66.0,29.88,South,177,0.0,1.0,88,0.00,,,0.53,,2013-06-06 21:03:00,
2013-06-06 17:13:00,70.0,66.0,29.88,South,177,0.0,1.0,88,0.00,,,0.53,,2013-06-06 21:13:00,
2013-06-06 17:23:00,70.0,65.0,29.88,South,177,0.0,4.0,85,0.00,,,0.53,,2013-06-06 21:23:00,
2013-06-06 17:33:00,71.0,66.0,29.88,South,177,0.0,3.0,85,0.00,,,0.53,,2013-06-06 21:33:00,
2013-06-06 17:44:00,71.0,66.0,29.88,South,177,0.0,3.0,85,0.00,,,0.53,,2013-06-06 21:44:00,
2013-06-06 17:53:00,70.0,66.0,29.88,South,177,0.0,1.0,88,0.00,,,0.53,,2013-06-06 21:53:00,
2013-06-06 18:03:00,69.0,66.0,29.87,South,177,0.0,3.0,89,0.00,,,0.53,,2013-06-06 22:03:00,
2013-06-06 18:13:00,69.0,66.0,29.87,South,177,0.0,3.0,89,0.00,,,0.53,,2013-06-06 22:13:00,
2013-06-06 18:23:00,69.0,65.0,29.86,South,177,0.0,4.0,86,0.00,,,0.53,,2013-06-06 22:23:00,
2013-06-06 18:33:00,69.0,65.0,29.86,South,177,0.0,3.0,88,0.00,,,0.53,,2013-06-06 22:33:00,
2013-06-06 18:43:00,69.0,65.0,29.86,South,177,0.0,3.0,88,0.00,,,0.53,,2013-06-06 22:43:00,
2013-06-06 18:53:00,68.0,64.0,29.86,South,178,0.0,2.0,88,0.00,,,0.53,,2013-06-06 22:53:00,
2013-06-06 19:03:00,68.0,65.0,29.86,South,177,0.0,4.0,89,0.00,,,0.53,,2013-06-06 23:03:00,
2013-06-06 19:13:00,68.0,65.0,29.86,South,177,0.0,4.0,89,0.00,,,0.53,,2013-06-06 23:13:00,
2013-06-06 19:22:00,68.0,65.0,29.86,South,177,0.0,2.0,90,0.00,,,0.53,,2013-06-06 23:22:00,
2013-06-06 19:33:00,67.0,64.0,29.86,South,177,0.0,3.0,91,0.00,,,0.53,,2013-06-06 23:33:00,
2013-06-06 19:43:00,67.0,64.0,29.86,South,177,0.0,3.0,91,0.00,,,0.53,,2013-06-06 23:43:00,
2013-06-06 19:52:00,67.0,64.0,29.86,South,177,0.0,1.0,91,0.00,,,0.53,,2013-06-06 23:52:00,
2013-06-06 20:02:00,66.0,64.0,29.87,South,177,0.0,1.0,93,0.00,,,0.53,,2013-06-07 00:02:00,
2013-06-06 20:13:00,66.0,64.0,29.87,South,177,0.0,1.0,93,0.00,,,0.53,,2013-06-07 00:13:00,
2013-06-06 20:22:00,65.0,63.0,29.87,South,177,0.0,1.0,93,0.00,,,0.53,,2013-06-07 00:22:00,
2013-06-06 20:32:00,65.0,63.0,29.87,South,177,1.0,2.0,94,0.00,,,0.53,,2013-06-07 00:32:00,
2013-06-06 20:42:00,65.0,63.0,29.87,South,177,1.0,2.0,94,0.00,,,0.53,,2013-06-07 00:42:00,
2013-06-06 20:52:00,65.0,64.0,29.86,South,178,0.0,2.0,95,0.00,,,0.53,,2013-06-07 00:52:00,
2013-06-06 21:03:00,64.0,63.0,29.86,South,178,1.0,2.0,95,0.00,,,0.53,,2013-06-07 01:03:00,
2013-06-06 21:12:00,64.0,63.0,29.86,South,178,1.0,2.0,95,0.00,,,0.53,,2013-06-07 01:12:00,
2013-06-06 21:22:00,64.0,63.0,29.86,South,178,0.0,2.0,96,0.00,,,0.53,,2013-06-07 01:22:00,
2013-06-06 21:32:00,64.0,63.0,29.86,South,177,0.0,2.0,96,0.00,,,0.28,,2013-06-07 01:32:00,
2013-06-06 21:42:00,64.0,63.0,29.86,South,177,0.0,2.0,96,0.00,,,0.28,,2013-06-07 01:42:00,
2013-06-06 21:52:00,64.0,63.0,29.86,South,177,1.0,4.0,96,0.00,,,0.28,,2013-06-07 01:52:00,
2013-06-06 22:02:00,64.0,63.0,29.86,South,177,0.0,4.0,96,0.00,,,0.28,,2013-06-07 02:02:00,
2013-06-06 22:12:00,64.0,63.0,29.86,South,177,0.0,4.0,96,0.00,,,0.28,,2013-06-07 02:12:00,
2013-06-06 22:22:00,63.0,62.0,29.87,South,178,0.0,3.0,96,0.00,,,0.28,,2013-06-07 02:22:00,
2013-06-06 22:32:00,63.0,62.0,29.87,South,178,0.0,4.0,96,0.00,,,0.20,,2013-06-07 02:32:00,
2013-06-06 22:42:00,63.0,62.0,29.87,South,178,0.0,4.0,96,0.00,,,0.20,,2013-06-07 02:42:00,
2013-06-06 22:52:00,63.0,62.0,29.87,South,177,1.0,6.0,96,0.00,,,0.20,,2013-06-07 02:52:00,
2013-06-06 23:02:00,63.0,62.0,29.87,South,177,0.0,3.0,96,0.00,,,0.20,,2013-06-07 03:02:00,
2013-06-06 23:12:00,63.0,62.0,29.87,South,177,0.0,3.0,96,0.00,,,0.20,,2013-06-07 03:12:00,
2013-06-06 23:22:00,63.0,62.0,29.87,South,177,1.0,4.0,96,0.00,,,0.20,,2013-06-07 03:22:00,
2013-06-06 23:33:00,63.0,62.0,29.87,South,177,0.0,3.0,96,0.00,,,0.19,,2013-06-07 03:33:00,
2013-06-06 23:43:00,63.0,62.0,29.87,South,177,0.0,3.0,96,0.00,,,0.19,,2013-06-07 03:43:00,
2013-06-06 23:53:00,63.0,62.0,29.87,South,177,1.0,4.0,96,0.00,,,0.19,,2013-06-07 03:53:00,